This demonstration page uses our WeatherBlox Daily Observations layout. Learn more.

Left ArrowRight Arrow

39.51506, -84.39828

Hourly Observations for February 25, 2021

Temp ( °F °C ) Dew Point ( °F °C ) Humidity (%) Winds ( mph kmh ) Pressure ( in mb ) Visibility ( mi km ) Precip ( " mm )
12:15 am 00:15 Cloudy 38 3.2 30 -1 74 74 N 14 22 30.24 1024 10 16 0.00 0.00
12:35 am 00:35 Cloudy 37 3 30 -1.1 75 75 NNW 12 19 30.24 1024 10 16 0.00 0.00
12:55 am 00:55 Mostly Cloudy 37 2.7 30 -0.9 77 77 N 8 13 30.25 1024 10 16 0.00 0.00
1:15 am 01:15 Clear 35 1.8 30 -1 82 82 N 6 9 30.25 1024 10 16 0.00 0.00
1:35 am 01:35 Clear 35 1.7 30 -1.2 81 81 N 6 9 30.27 1025 10 16 0.00 0.00
1:55 am 01:55 Clear 34 0.9 29 -1.4 85 85 NNW 5 7 30.27 1025 10 16 0.00 0.00
2:15 am 02:15 Clear 34 0.9 29 -1.4 85 85 Calm 30.27 1025 10 16 0.00 0.00
2:35 am 02:35 Clear 30 -1.2 28 -2.3 92 92 Calm 30.29 1026 10 16 0.00 0.00
2:55 am 02:55 Clear 30 -1.1 29 -1.7 96 96 Calm 30.29 1026 10 16 0.00 0.00
3:15 am 03:15 Clear 30 -1 29 -1.4 97 97 Calm 30.30 1026 10 16 0.00 0.00
3:35 am 03:35 Mostly Cloudy 30 -1.3 29 -1.7 97 97 Calm 30.30 1026 10 16 0.00 0.00
3:55 am 03:55 Clear 28 -2.4 28 -2.5 99 99 Calm 30.30 1026 10 16 0.00 0.00
4:15 am 04:15 Clear 27 -3 26 -3.1 99 99 Calm 30.30 1026 10 16 0.00 0.00
4:35 am 04:35 Clear 28 -2.4 28 -2.5 99 99 Calm 30.31 1026 10 16 0.00 0.00
4:55 am 04:55 Clear 28 -2 27 -3 93 93 Calm 30.31 1026 10 16 0.00 0.00
5:15 am 05:15 Clear 27 -3 N/A N/A Calm 30.32 1027 7 11 0.00 0.00
5:35 am 05:35 Clear 27 -3 25 -4 93 93 Calm 30.32 1027 10 16 0.00 0.00
5:55 am 05:55 Clear 25 -4 N/A N/A Calm 30.34 1027 10 16 0.00 0.00
6:15 am 06:15 Clear 25 -4 N/A N/A Calm 30.35 1028 10 16 0.00 0.00
6:35 am 06:35 Clear 23 -5 23 -5 100 100 Calm 30.35 1028 10 16 0.00 0.00
6:55 am 06:55 Clear with Mist and Fog 27 -3 N/A N/A WNW 5 7 30.34 1028 3 5 0.00 0.00
7:15 am 07:15 Clear 27 -3 N/A N/A N 5 7 30.35 1028 10 16 0.00 0.00
7:35 am 07:35 Sunny 27 -2.8 27 -2.9 99 99 NNE 6 9 30.35 1028 10 16 0.00 0.00
7:55 am 07:55 Sunny 28 -2.4 27 -2.8 97 97 NE 3 6 30.36 1028 10 16 0.00 0.00
8:15 am 08:15 Sunny 29 -1.6 28 -2.1 96 96 Calm 30.37 1028 10 16 0.00 0.00
8:35 am 08:35 Sunny 31 -0.4 29 -1.5 92 92 N 6 9 30.39 1029 10 16 0.00 0.00
8:55 am 08:55 Sunny 33 0.6 30 -1.2 88 88 N 7 11 30.39 1029 10 16 0.00 0.00
9:15 am 09:15 Sunny 34 1.3 29 -1.4 82 82 NNE 7 11 30.39 1029 10 16 0.00 0.00
9:35 am 09:35 Sunny 36 2 30 -1.2 80 80 N 6 9 30.40 1029 10 16 0.00 0.00
9:55 am 09:55 Sunny 36 2.4 29 -1.8 74 74 N 6 9 30.41 1030 10 16 0.00 0.00
10:15 am 10:15 Sunny 37 2.9 28 -2.2 69 69 N 8 13 30.42 1030 10 16 0.00 0.00
10:35 am 10:35 Sunny 39 3.7 28 -2.1 66 66 NNW 6 9 30.42 1030 10 16 0.00 0.00
10:55 am 10:55 Cloudy 38 3.5 26 -3.3 61 61 NNW 6 9 30.42 1030 10 16 0.00 0.00
11:15 am 11:15 Partly Cloudy 39 4.1 26 -3.6 58 58 NE 7 11 30.40 1030 10 16 0.00 0.00
11:35 am 11:35 Sunny 41 4.9 26 -3.6 55 55 WNW 8 13 30.40 1030 10 16 0.00 0.00
11:55 am 11:55 Sunny 41 5 25 -4 53 53 N 7 11 30.40 1030 10 16 0.00 0.00
12:15 pm 12:15 Sunny 41 5.1 25 -4 52 52 W 5 7 30.40 1030 10 16 0.00 0.00
12:35 pm 12:35 Sunny 42 5.6 25 -3.7 52 52 NW 5 7 30.39 1029 10 16 0.00 0.00
12:55 pm 12:55 Sunny 42 5.8 24 -4.4 48 48 Calm 30.38 1029 10 16 0.00 0.00
1:15 pm 13:15 Sunny 44 6.4 25 -4.1 47 47 WNW 5 7 30.37 1028 10 16 0.00 0.00
1:35 pm 13:35 Sunny 44 6.9 23 -4.8 43 43 NW 8 13 30.36 1028 10 16 0.00 0.00
1:55 pm 13:55 Sunny 44 6.9 24 -4.3 45 45 N 8 13 30.35 1028 10 16 0.00 0.00
2:15 pm 14:15 Sunny 44 6.8 25 -4.1 46 46 NNE 6 9 30.35 1028 10 16 0.00 0.00
2:35 pm 14:35 Sunny 45 7.2 25 -3.7 46 46 NNW 8 13 30.35 1028 10 16 0.00 0.00
2:55 pm 14:55 Sunny 45 7.1 26 -3.6 47 47 NW 9 15 30.35 1028 10 16 0.00 0.00
3:15 pm 15:15 Sunny 45 7.2 26 -3.3 48 48 NW 6 9 30.35 1028 10 16 0.00 0.00
3:35 pm 15:35 Partly Cloudy 45 7.1 26 -3.2 48 48 N 6 9 30.35 1028 10 16 0.00 0.00
3:55 pm 15:55 Partly Cloudy 45 7.4 27 -2.7 49 49 NW 8 13 30.35 1028 10 16 0.00 0.00
4:15 pm 16:15 Sunny 45 7.2 26 -3.5 47 47 NNE 8 13 30.35 1028 10 16 0.00 0.00
4:35 pm 16:35 Sunny 44 6.8 25 -3.8 47 47 N 9 15 30.35 1028 10 16 0.00 0.00
4:55 pm 16:55 Sunny 44 6.9 26 -3.4 48 48 N 8 13 30.35 1028 10 16 0.00 0.00
5:15 pm 17:15 Sunny 44 6.7 24 -4.2 46 46 NW 7 11 30.35 1028 10 16 0.00 0.00
5:35 pm 17:35 Sunny 43 6.3 25 -3.9 48 48 N 7 11 30.35 1028 10 16 0.00 0.00
5:55 pm 17:55 Sunny 42 5.6 25 -4.1 50 50 NW 9 15 30.36 1028 10 16 0.00 0.00
6:15 pm 18:15 Sunny 41 5 25 -3.9 53 53 NW 5 7 30.36 1028 10 16 0.00 0.00
6:35 pm 18:35 Clear 40 4.7 25 -3.9 54 54 NNW 3 6 30.36 1028 10 16 0.00 0.00
6:55 pm 18:55 Clear 40 4.3 25 -3.9 56 56 N 3 6 30.37 1029 10 16 0.00 0.00
7:15 pm 19:15 Clear 35 1.9 29 -1.9 76 76 Calm 30.39 1029 10 16 0.00 0.00
7:35 pm 19:35 Clear 35 1.7 27 -2.9 72 72 Calm 30.40 1029 10 16 0.00 0.00
7:55 pm 19:55 Clear 35 1.5 28 -2.1 77 77 Calm 30.40 1030 10 16 0.00 0.00
8:15 pm 20:15 Clear 32 0.1 26 -3.1 79 79 Calm 30.41 1030 10 16 0.00 0.00
8:35 pm 20:35 Clear 34 0.9 27 -3 75 75 Calm 30.40 1030 10 16 0.00 0.00
8:55 pm 20:55 Clear 33 0.4 28 -2.5 81 81 Calm 30.39 1029 10 16 0.00 0.00
9:15 pm 21:15 Clear 32 0.2 27 -2.6 82 82 N 3 6 30.41 1030 10 16 0.00 0.00
9:35 pm 21:35 Clear 33 0.3 28 -2.5 82 82 N 5 7 30.40 1030 10 16 0.00 0.00
9:55 pm 21:55 Clear 33 0.5 28 -2.3 82 82 Calm 30.39 1029 10 16 0.00 0.00
10:15 pm 22:15 Clear 33 0.7 28 -2.4 80 80 Calm 30.40 1030 10 16 0.00 0.00
10:35 pm 22:35 Clear 32 0.1 28 -2.5 83 83 Calm 30.41 1030 10 16 0.00 0.00
10:55 pm 22:55 Partly Cloudy 31 -0.3 27 -2.8 83 83 N 5 7 30.41 1030 10 16 0.00 0.00
11:15 pm 23:15 Partly Cloudy 31 -0.4 28 -2.2 88 88 NNE 3 6 30.40 1029 10 16 0.00 0.00
11:35 pm 23:35 Partly Cloudy 31 -0.3 27 -2.7 84 84 NNE 6 9 30.40 1029 10 16 0.00 0.00
11:55 pm 23:55 Clear 32 0.2 27 -3 79 79 NNE 3 6 30.38 1029 10 16 0.00 0.00

Powered by AerisWeather